Location: Meriden
(44.0740°N, 93.3870°W)
Time: 20:04:15
(UTC-06:00)

Amateur Radio Satellites - All Passes

Search period start: 22 January 2018 19:34
Search period end: 23 January 2018 19:34
Location: Meriden, 44.0740°N, 93.3870°W

Satellite Date Start Highest point End Downlink Frequencies (MHz)
Time Altitude Azimuth
STARS 22 Jan 19:36:26 19:39:43 21° 296° (WNW) 19:43:01 437.465
RS-15 22 Jan 19:37:38 19:44:28 18° 264° (W) 19:51:09 29.354- 29.394
SEEDS 22 Jan 19:38:11 19:41:26 21° 267° (W) 19:44:40 437.485
Oscar 11 22 Jan 19:47:07 19:51:28 82° 76° (ENE) 19:55:51 .
HO-68 22 Jan 19:49:36 19:54:57 22° 269° (W) 20:00:21 435.675
ISS 22 Jan 19:54:55 19:57:49 30° 138° (SE) 20:00:44 437.550
BEESAT 2 22 Jan 20:02:15 20:05:01 18° 248° (WSW) 20:07:45 435.950
PCSat 22 Jan 20:13:47 20:16:59 16° 256° (WSW) 20:20:10 145.827
FO-29 22 Jan 20:24:29 20:29:40 68° 102° (ESE) 20:34:56 435.910
STRAND 1 22 Jan 20:28:28 20:33:24 48° 290° (WNW) 20:38:19 437.568
UWE-3 22 Jan 20:31:09 20:32:52 12° 273° (W) 20:34:35 435.000/436.395/437.385
ZACube-1 22 Jan 20:49:13 20:51:39 14° 271° (W) 20:54:06 437.345
AO-73 22 Jan 20:54:40 20:57:04 14° 271° (W) 20:59:31 145.935
AO-85 22 Jan 21:02:23 21:07:01 39° 243° (WSW) 21:11:54 145.980
DELFI C3 22 Jan 21:04:16 21:08:10 73° 257° (WSW) 21:12:05 145.870
NO-84 22 Jan 21:08:13 21:09:29 12° 14° (NNE) 21:10:46 435.350 FM
nSIGHT-1 22 Jan 21:09:14 21:12:16 44° 336° (NNW) 21:15:20 .
Max Valier Satellite 22 Jan 21:16:59 21:20:43 78° 258° (WSW) 21:24:29 145.860
TIGRISAT 22 Jan 21:18:09 21:22:07 26° 94° (E) 21:26:03 435.000
EO-88 22 Jan 21:30:40 21:34:19 81° 257° (WSW) 21:38:00 145.990 - 145.960
ISS 22 Jan 21:31:05 21:34:13 43° 336° (NNW) 21:37:22 437.550
UNISAT 6 22 Jan 21:33:41 21:38:09 41° 97° (E) 21:42:34 437.425
YUBILEINY 22 Jan 22:07:22 22:15:13 38° 85° (E) 22:23:03 435.215
FO-29 22 Jan 22:11:05 22:14:16 16° 301° (WNW) 22:17:25 435.910
ESTCUBE 1 22 Jan 22:20:44 22:25:00 42° 70° (ENE) 22:29:16 437.505/2401.250
PRISM 22 Jan 22:41:20 22:45:13 42° 99° (E) 22:49:06 437.425
LO-87 22 Jan 22:42:57 22:46:31 87° 253° (WSW) 22:50:08 145.935 - 145.965
NO-84 22 Jan 22:44:28 22:47:13 46° 34° (NE) 22:50:01 435.350 FM
nSIGHT-1 22 Jan 22:46:30 22:48:59 21° 356° (N) 22:51:28 .
TIGRISAT 22 Jan 22:54:33 22:58:49 35° 291° (WNW) 23:03:04 435.000
POLYITAN 1 22 Jan 23:07:15 23:09:12 13° 90° (E) 23:11:07 437.675
ISS 22 Jan 23:08:40 23:11:16 21° 356° (N) 23:13:52 437.550
UNISAT 6 22 Jan 23:10:53 23:14:36 24° 295° (WNW) 23:18:19 437.425
NANOSAT C BR1 22 Jan 23:20:11 23:22:46 16° 91° (E) 23:25:20 145.865
SPROUT 22 Jan 23:26:30 23:30:35 49° 72° (ENE) 23:34:43 437.525
QB50P2 22 Jan 23:35:43 23:39:28 29° 96° (E) 23:43:11 145.880/145.840
AIST 2D 22 Jan 23:43:13 23:46:41 65° 284° (WNW) 23:50:06 435.315
VELOX 1 22 Jan 23:46:47 23:50:58 45° 71° (ENE) 23:55:09 145.980
DX 1 22 Jan 23:58:12 00:00:19 13° 60° (ENE) 00:02:25 434.975-435.025
ESTCUBE 1 22 Jan 23:58:37 00:01:58 20° 267° (W) 00:05:20 437.505/2401.250
DUCHIFAT 1 23 Jan 00:01:29 00:05:28 36° 98° (E) 00:09:23 145.980
O/OREOS (USA 219) 23 Jan 00:03:06 00:07:30 57° 109° (ESE) 00:11:55 437.305
YUBILEINY 23 Jan 00:03:14 00:11:44 51° 286° (WNW) 00:20:17 435.215
EO-79 23 Jan 00:05:28 00:09:41 54° 100° (E) 00:13:52 145.935-145.965
PRISM 23 Jan 00:17:24 00:20:10 18° 296° (WNW) 00:22:57 437.425
NO-84 23 Jan 00:22:20 00:24:06 15° 230° (SW) 00:25:54 435.350 FM
nSIGHT-1 23 Jan 00:23:03 00:25:50 27° 16° (NNE) 00:28:37 .
Oscar 19 23 Jan 00:32:36 00:35:04 13° 89° (E) 00:37:32 437.125/150
Gurwin Techsat 1B 23 Jan 00:37:24 00:38:59 11° 87° (E) 00:40:32 435.225
POLYITAN 1 23 Jan 00:41:06 00:45:21 62° 287° (WNW) 00:49:35 437.675
ISS 23 Jan 00:45:30 00:48:26 29° 17° (NNE) 00:51:22 437.550
AO-91 23 Jan 00:52:36 00:56:23 24° 95° (E) 01:00:25 145.960
BUGSAT 1 23 Jan 00:53:55 00:57:44 31° 97° (E) 01:01:32 437.445
NANOSAT C BR1 23 Jan 00:54:36 00:58:44 50° 288° (WNW) 01:02:51 145.865
50 SAT 23 Jan 00:56:42 00:59:35 37° 72° (ENE) 01:02:27 437.505
SPROUT 23 Jan 01:04:08 01:06:44 16° 269° (W) 01:09:22 437.525
QB50P2 23 Jan 01:11:31 01:15:09 27° 293° (WNW) 01:18:46 145.880/145.840
UKube-1 23 Jan 01:14:56 01:19:03 48° 71° (ENE) 01:23:12 .
VELOX 1 23 Jan 01:24:39 01:27:37 18° 268° (W) 01:30:37 145.980
DX 1 23 Jan 01:31:38 01:35:57 68° 258° (WSW) 01:40:16 434.975-435.025
DUCHIFAT 1 23 Jan 01:37:37 01:40:53 22° 294° (WNW) 01:44:08 145.980
EO-79 23 Jan 01:42:24 01:45:00 16° 297° (WNW) 01:47:35 145.935-145.965
O/OREOS (USA 219) 23 Jan 01:44:12 01:47:17 18° 308° (NW) 01:50:23 437.305
ITUPSAT 1 23 Jan 01:52:30 01:56:13 23° 64° (ENE) 01:59:57 437.325
nSIGHT-1 23 Jan 01:59:03 02:02:14 70° 213° (SSW) 02:05:22 .
MOZHAYETS 4 23 Jan 02:00:19 02:04:41 42° 70° (ENE) 02:09:05
YUBILEINY 23 Jan 02:09:25 02:11:07 11° 311° (NW) 02:12:51 435.215
Oscar 19 23 Jan 02:09:48 02:15:00 79° 286° (WNW) 02:20:08 437.125/150
CUBESAT XI-V 23 Jan 02:11:29 02:14:18 16° 62° (ENE) 02:17:07 437.345
Gurwin Techsat 1B 23 Jan 02:14:19 02:19:40 87° 105° (ESE) 02:25:00 435.225
AO-7 23 Jan 02:18:21 02:23:52 19° 89° (E) 02:29:20 .
ISS 23 Jan 02:21:52 02:25:07 64° 215° (SW) 02:28:21 437.550
AO-91 23 Jan 02:28:39 02:32:52 39° 289° (WNW) 02:37:28 145.960
BUGSAT 1 23 Jan 02:29:28 02:32:56 25° 294° (WNW) 02:36:24 437.445
BEESAT 23 Jan 02:29:28 02:34:04 50° 70° (ENE) 02:38:41 436.000
50 SAT 23 Jan 02:31:00 02:31:27 10° 268° (W) 02:31:53 437.505
UKube-1 23 Jan 02:52:37 02:55:20 16° 268° (W) 02:58:03 .
KKS-1 23 Jan 03:15:38 03:16:42 11° 58° (ENE) 03:17:45 437.445
ITAMSAT 1 23 Jan 03:21:34 03:25:57 27° 95° (E) 03:30:20 435.822/435.867
ITUPSAT 1 23 Jan 03:29:13 03:33:45 44° 261° (W) 03:38:22 437.325
MOZHAYETS 4 23 Jan 03:38:30 03:42:00 21° 267° (W) 03:45:33
CUBESAT XI-V 23 Jan 03:46:30 03:51:09 64° 259° (W) 03:55:49 437.345
Oscar 19 23 Jan 03:51:36 03:53:26 12° 304° (NW) 03:55:16 437.125/150
Gurwin Techsat 1B 23 Jan 03:56:02 03:58:53 15° 303° (WNW) 04:01:44 435.225
DOVE 4 23 Jan 04:04:34 04:07:42 19° 93° (E) 04:10:55 437.250
BEESAT 23 Jan 04:08:46 04:12:06 19° 268° (W) 04:15:28 436.000
AO-7 23 Jan 04:09:18 04:17:44 87° 106° (ESE) 04:26:06 .
FALCONSAT 3 23 Jan 04:15:03 04:17:43 19° 171° (S) 04:20:24 435.103
SO-50 23 Jan 04:32:56 04:36:59 35° 116° (ESE) 04:41:05 436.795
KKS-1 23 Jan 04:48:07 04:52:32 90° 265° (W) 04:56:59 437.445
STARS 23 Jan 04:57:08 05:01:16 44° 71° (ENE) 05:05:26 437.465
ITAMSAT 1 23 Jan 05:00:40 05:05:32 41° 292° (WNW) 05:10:22 435.822/435.867
CUTE-I 23 Jan 05:13:49 05:16:12 13° 88° (E) 05:18:33 437.470
XW-2D 23 Jan 05:20:06 05:22:14 14° 91° (E) 05:24:20 145.860 - 145.880
HO-68 23 Jan 05:29:14 05:31:08 11° 85° (E) 05:33:02 435.675
XW-2B 23 Jan 05:37:08 05:40:05 22° 94° (E) 05:43:01 145.730 - 145.750
DOVE 4 23 Jan 05:41:22 05:45:33 45° 288° (WNW) 05:49:57 437.250
RS-15 23 Jan 05:41:36 05:47:30 15° 94° (E) 05:53:21 29.354- 29.394
M-CUBED/EXP-1 PRIME 23 Jan 05:47:28 05:50:46 56° 292° (WNW) 05:53:57 437.505
FALCONSAT 3 23 Jan 05:53:25 05:56:10 20° 187° (S) 05:58:54 435.103
CUTE 1.7 + AOD 2 23 Jan 06:02:42 06:04:48 13° 90° (E) 06:06:53 437.475
AO-7 23 Jan 06:03:09 06:09:31 25° 310° (NW) 06:15:52 .
STRAND 1 23 Jan 06:07:03 06:11:41 37° 68° (ENE) 06:16:22 437.568
XW-2C 23 Jan 06:07:06 06:10:47 51° 99° (E) 06:14:25 145.795 - 145.815
LilacSat-2 23 Jan 06:08:10 06:11:54 58° 100° (E) 06:15:36 437.200
SO-50 23 Jan 06:13:26 06:17:27 31° 316° (NW) 06:21:32 436.795
KAITUO 1B 23 Jan 06:34:36 06:38:17 79° 101° (E) 06:41:58 145.475/437.950
STARS 23 Jan 06:34:49 06:37:49 18° 267° (W) 06:40:50 437.465
FO-29 23 Jan 06:37:46 06:43:44 37° 67° (ENE) 06:49:05 435.910
CUBEBUG 2 23 Jan 06:39:56 06:43:52 25° 93° (E) 06:47:46 437.445
NUDT-PHONESAT 23 Jan 06:40:47 06:44:29 88° 105° (ESE) 06:48:08 437.300
XW-2F 23 Jan 06:40:54 06:44:37 65° 285° (WNW) 06:48:18 145.980 - 146.000
UWE-3 23 Jan 06:40:55 06:43:28 14° 89° (E) 06:46:00 435.000/436.395/437.385
CUTE-I 23 Jan 06:51:32 06:56:54 85° 286° (WNW) 07:02:14 437.470
XW-2D 23 Jan 06:53:03 06:56:35 40° 288° (WNW) 07:00:06 145.860 - 145.880
AAUSAT CUBESAT 2 23 Jan 06:54:30 06:56:12 12° 89° (E) 06:57:54 437.432
ZACube-1 23 Jan 06:59:45 07:01:06 11° 87° (E) 07:02:26 437.345
AO-73 23 Jan 07:04:59 07:06:12 11° 87° (E) 07:07:25 145.935
XW-2B 23 Jan 07:11:01 07:14:15 27° 291° (WNW) 07:17:25 145.730 - 145.750
HO-68 23 Jan 07:13:01 07:20:10 67° 103° (ESE) 07:27:17 435.675
SEEDS 23 Jan 07:19:03 07:23:09 55° 100° (E) 07:27:13 437.485
FALCONSAT 3 23 Jan 07:33:52 07:34:29 10° 202° (SSW) 07:35:06 435.103
Oscar 11 23 Jan 07:34:22 07:36:34 14° 90° (E) 07:38:44 .
CUTE 1.7 + AOD 2 23 Jan 07:36:50 07:40:58 55° 286° (WNW) 07:45:04 437.475
XW-2C 23 Jan 07:42:46 07:44:31 13° 297° (WNW) 07:46:14 145.795 - 145.815
LilacSat-2 23 Jan 07:44:17 07:45:41 12° 297° (WNW) 07:47:05 437.200
RS-15 23 Jan 07:45:24 07:57:29 65° 115° (ESE) 08:09:23 29.354- 29.394
STRAND 1 23 Jan 07:46:32 07:50:55 29° 265° (W) 07:55:20 437.568
XW-2A 23 Jan 07:54:02 07:57:17 44° 99° (E) 08:00:28 145.665 - 145.685
YUBILEINY 23 Jan 08:15:39 08:21:45 20° 60° (ENE) 08:27:48 435.215
UWE-3 23 Jan 08:15:42 08:20:21 63° 286° (WNW) 08:24:53 435.000/436.395/437.385
CUBEBUG 2 23 Jan 08:16:09 08:20:33 38° 290° (WNW) 08:24:54 437.445
TIGRISAT 23 Jan 08:18:08 08:21:52 27° 66° (ENE) 08:25:41 435.000
FO-29 23 Jan 08:22:35 08:28:47 38° 262° (W) 08:34:20 435.910
AAUSAT CUBESAT 2 23 Jan 08:27:59 08:32:01 58° 286° (WNW) 08:36:02 437.432
O/OREOS (USA 219) 23 Jan 08:33:11 08:36:14 18° 52° (NE) 08:39:17 437.305
ZACube-1 23 Jan 08:33:21 08:37:56 77° 286° (WNW) 08:42:24 437.345
UNISAT 6 23 Jan 08:33:38 08:37:48 41° 70° (ENE) 08:42:06 437.425
CUTE-I 23 Jan 08:33:40 08:36:07 13° 304° (WNW) 08:38:34 437.470
AO-73 23 Jan 08:38:27 08:43:00 77° 285° (WNW) 08:47:26 145.935
DELFI C3 23 Jan 08:41:04 08:42:42 12° 90° (E) 08:44:19 145.870
SEEDS 23 Jan 08:56:04 08:58:23 15° 297° (WNW) 09:00:40 437.485
BEESAT 3 23 Jan 08:58:15 09:02:06 49° 119° (ESE) 09:05:58 437.485
HO-68 23 Jan 09:01:35 09:07:20 27° 303° (WNW) 09:13:05 435.675
Oscar 11 23 Jan 09:08:48 09:13:04 58° 287° (WNW) 09:17:18 .
PCSat 23 Jan 09:11:42 09:16:56 52° 115° (ESE) 09:22:12 145.827
XW-2A 23 Jan 09:28:23 09:29:33 11° 296° (WNW) 09:30:43 145.665 - 145.685
PRISM 23 Jan 09:31:39 09:35:23 36° 70° (ENE) 09:39:06 437.425
BEESAT 2 23 Jan 09:52:52 09:56:45 49° 119° (ESE) 10:00:40 435.950
TIGRISAT 23 Jan 09:54:24 09:58:24 33° 264° (W) 10:02:33 435.000
RS-15 23 Jan 09:58:45 10:10:35 49° 321° (NW) 10:22:10 29.354- 29.394
POLYITAN 1 23 Jan 10:01:35 10:03:27 13° 61° (ENE) 10:05:19 437.675
YUBILEINY 23 Jan 10:11:09 10:19:56 87° 81° (E) 10:28:39 435.215
UNISAT 6 23 Jan 10:11:18 10:14:40 21° 268° (W) 10:18:08 437.425
O/OREOS (USA 219) 23 Jan 10:11:37 10:16:01 57° 250° (WSW) 10:20:24 437.305
DELFI C3 23 Jan 10:13:54 10:17:44 54° 287° (WNW) 10:21:35 145.870
NANOSAT C BR1 23 Jan 10:13:56 10:16:19 15° 62° (ENE) 10:18:43 145.865
AIST 2D 23 Jan 10:18:06 10:21:30 50° 74° (ENE) 10:24:56 435.315
Max Valier Satellite 23 Jan 10:18:51 10:22:33 69° 285° (WNW) 10:26:11 145.860
QB50P2 23 Jan 10:29:34 10:33:06 26° 67° (ENE) 10:36:41 145.880/145.840
EO-88 23 Jan 10:30:59 10:34:37 76° 284° (WNW) 10:38:13 145.990 - 145.960
BEESAT 3 23 Jan 10:36:50 10:39:52 20° 318° (NW) 10:42:55 437.485
DUCHIFAT 1 23 Jan 10:54:21 10:58:06 32° 69° (ENE) 11:01:54 145.980
PCSat 23 Jan 10:55:58 11:00:36 28° 314° (NW) 11:05:16 145.827
EO-79 23 Jan 10:58:49 11:02:52 47° 72° (ENE) 11:06:59 145.935-145.965
PRISM 23 Jan 11:07:48 11:10:45 19° 266° (W) 11:13:42 437.425
AO-85 23 Jan 11:18:08 11:21:57 48° 119° (ESE) 11:26:03 145.980
SO-50 23 Jan 11:23:20 11:25:10 12° 29° (NNE) 11:27:01 436.795
BEESAT 2 23 Jan 11:31:36 11:34:42 21° 318° (NW) 11:37:49 435.950
POLYITAN 1 23 Jan 11:34:24 11:38:38 70° 258° (WSW) 11:42:55 437.675
LO-87 23 Jan 11:41:12 11:44:52 86° 282° (WNW) 11:48:29 145.935 - 145.965
BUGSAT 1 23 Jan 11:44:56 11:48:22 26° 67° (ENE) 11:51:52 437.445
NANOSAT C BR1 23 Jan 11:47:24 11:51:33 57° 259° (W) 11:55:45 145.865
ESTCUBE 1 23 Jan 11:47:54 11:52:25 76° 104° (ESE) 11:56:52 437.505/2401.250
Oscar 19 23 Jan 11:50:04 11:54:14 25° 63° (ENE) 11:58:23 437.125/150
AO-91 23 Jan 11:52:54 11:55:07 16° 64° (ENE) 11:57:24 145.960
AIST 2D 23 Jan 11:54:19 11:54:57 10° 270° (W) 11:55:35 435.315
Gurwin Techsat 1B 23 Jan 11:58:36 12:02:42 23° 62° (ENE) 12:06:48 435.225
QB50P2 23 Jan 12:05:05 12:08:48 29° 264° (W) 12:12:33 145.880/145.840
YUBILEINY 23 Jan 12:09:44 12:15:31 20° 283° (WNW) 12:21:17 435.215
RS-15 23 Jan 12:17:00 12:26:57 28° 353° (N) 12:36:36 29.354- 29.394
DUCHIFAT 1 23 Jan 12:30:25 12:33:48 23° 266° (W) 12:37:13 145.980
EO-79 23 Jan 12:36:14 12:38:53 16° 269° (W) 12:41:33 145.935-145.965
SPROUT 23 Jan 12:45:54 12:50:14 78° 104° (ESE) 12:54:31 437.525
AO-85 23 Jan 12:59:24 13:02:38 22° 320° (NW) 13:06:04 145.980
SO-50 23 Jan 13:02:07 13:06:43 51° 50° (NE) 13:11:21 436.795
VELOX 1 23 Jan 13:11:04 13:15:29 76° 103° (ESE) 13:19:52 145.980
AO-7 23 Jan 13:18:32 13:25:44 34° 56° (NE) 13:32:58 .
DX 1 23 Jan 13:19:03 13:22:03 18° 93° (E) 13:25:02 434.975-435.025
BUGSAT 1 23 Jan 13:20:08 13:23:39 27° 265° (W) 13:27:13 437.445
ESTCUBE 1 23 Jan 13:26:37 13:28:34 13° 300° (WNW) 13:30:33 437.505/2401.250
Oscar 19 23 Jan 13:28:15 13:33:15 47° 261° (W) 13:38:16 437.125/150
AO-91 23 Jan 13:28:22 13:31:22 29° 264° (W) 13:34:32 145.960
Gurwin Techsat 1B 23 Jan 13:37:07 13:42:17 52° 260° (W) 13:47:29 435.225
50 SAT 23 Jan 13:41:07 13:43:39 22° 96° (E) 13:46:09 437.505
SPROUT 23 Jan 14:23:55 14:25:28 12° 300° (WNW) 14:27:01 437.525
BEESAT 23 Jan 14:30:28 14:31:47 11° 88° (E) 14:33:05 436.000
RS-15 23 Jan 14:33:18 14:44:05 36° 28° (NNE) 14:54:20 29.354- 29.394
UKube-1 23 Jan 14:35:53 14:40:12 72° 103° (ESE) 14:44:29 .
ITAMSAT 1 23 Jan 14:40:45 14:45:41 48° 69° (ENE) 14:50:40 435.822/435.867
SO-50 23 Jan 14:43:14 14:46:52 22° 247° (WSW) 14:50:32 436.795
VELOX 1 23 Jan 14:49:27 14:51:19 13° 300° (WNW) 14:53:10 145.980
DX 1 23 Jan 14:54:18 14:58:26 44° 289° (WNW) 15:02:34 434.975-435.025
M-CUBED/EXP-1 PRIME 23 Jan 15:00:20 15:03:27 21° 62° (ENE) 15:06:26 437.505
AO-7 23 Jan 15:09:44 15:18:00 64° 256° (WSW) 15:26:21 .
DOVE 4 23 Jan 15:11:55 15:15:03 21° 66° (ENE) 15:18:09 437.250
50 SAT 23 Jan 15:13:01 15:15:11 18° 292° (WNW) 15:17:21 437.505
ITUPSAT 1 23 Jan 15:27:52 15:32:25 41° 98° (E) 15:36:58 437.325
MOZHAYETS 4 23 Jan 15:30:25 15:35:05 82° 104° (ESE) 15:39:40
NO-84 23 Jan 15:36:57 15:39:30 22° 132° (SE) 15:41:56 435.350 FM
CUBESAT XI-V 23 Jan 15:41:47 15:45:45 28° 95° (E) 15:49:40 437.345
HO-68 23 Jan 16:00:38 16:03:30 13° 47° (NE) 16:06:21 435.675
BEESAT 23 Jan 16:05:20 16:10:09 84° 287° (WNW) 16:14:56 436.000
UKube-1 23 Jan 16:13:44 16:15:38 13° 300° (WNW) 16:17:32 .
PCSat 23 Jan 16:16:00 16:18:43 14° 33° (NNE) 16:21:26 145.827
XW-2B 23 Jan 16:20:23 16:22:32 15° 64° (ENE) 16:24:40 145.730 - 145.750
ITAMSAT 1 23 Jan 16:21:24 16:25:24 22° 267° (W) 16:29:25 435.822/435.867
M-CUBED/EXP-1 PRIME 23 Jan 16:33:38 16:37:38 39° 256° (WSW) 16:41:24 437.505
CUTE-I 23 Jan 16:36:11 16:40:30 26° 64° (ENE) 16:44:51 437.470
KKS-1 23 Jan 16:38:41 16:41:20 15° 91° (E) 16:43:57 437.445
RS-15 23 Jan 16:46:27 16:58:18 88° 56° (NE) 17:09:29 29.354- 29.394
DOVE 4 23 Jan 16:48:39 16:52:34 35° 263° (W) 16:56:24 437.250
XW-2C 23 Jan 16:49:29 16:52:52 30° 70° (ENE) 16:56:14 145.795 - 145.815
LilacSat-2 23 Jan 16:51:06 16:54:37 34° 71° (ENE) 16:58:08 437.200
CUTE 1.7 + AOD 2 23 Jan 16:57:15 16:59:10 13° 62° (ENE) 17:01:05 437.475
ITUPSAT 1 23 Jan 17:06:08 17:10:01 25° 296° (WNW) 17:13:52 437.325
MOZHAYETS 4 23 Jan 17:09:34 17:11:33 13° 301° (WNW) 17:13:31
AO-7 23 Jan 17:09:44 17:12:22 12° 275° (W) 17:15:02 .
BEESAT 3 23 Jan 17:13:19 17:17:07 46° 51° (NE) 17:20:51 437.485
NO-84 23 Jan 17:13:38 17:16:32 37° 328° (NNW) 17:19:17 435.350 FM
KAITUO 1B 23 Jan 17:15:20 17:18:53 42° 72° (ENE) 17:22:26 145.475/437.950
CUBESAT XI-V 23 Jan 17:19:01 17:23:06 32° 292° (WNW) 17:27:10 437.345
NUDT-PHONESAT 23 Jan 17:20:30 17:24:04 45° 73° (ENE) 17:27:39 437.300
XW-2F 23 Jan 17:22:17 17:26:04 70° 74° (ENE) 17:29:51 145.980 - 146.000
XW-2D 23 Jan 17:34:43 17:38:32 73° 257° (WSW) 17:42:22 145.860 - 145.880
CUBEBUG 2 23 Jan 17:39:24 17:42:58 24° 65° (ENE) 17:46:37 437.445
UWE-3 23 Jan 17:39:31 17:41:59 15° 61° (ENE) 17:44:29 435.000/436.395/437.385
HO-68 23 Jan 17:42:47 17:49:44 58° 67° (ENE) 17:56:44 435.675
BEESAT 23 Jan 17:45:35 17:47:08 11° 303° (WNW) 17:48:42 436.000
AAUSAT CUBESAT 2 23 Jan 17:46:58 17:48:01 11° 61° (ENE) 17:49:03 437.432
XW-2B 23 Jan 17:52:38 17:56:19 46° 261° (W) 18:00:01 145.730 - 145.750
ZACube-1 23 Jan 17:57:03 17:58:41 12° 59° (ENE) 18:00:20 437.345
PCSat 23 Jan 17:57:57 18:03:19 58° 55° (NE) 18:08:39 145.827
AO-73 23 Jan 18:01:55 18:03:28 12° 59° (ENE) 18:05:03 145.935
AO-85 23 Jan 18:07:35 18:10:30 16° 34° (NE) 18:13:30 145.980
BEESAT 2 23 Jan 18:08:51 18:12:46 47° 51° (NE) 18:16:36 435.950
SEEDS 23 Jan 18:11:38 18:15:38 44° 72° (ENE) 18:19:39 437.485
KKS-1 23 Jan 18:13:50 18:18:12 55° 288° (WNW) 18:22:33 437.445
CUTE-I 23 Jan 18:15:14 18:20:18 45° 261° (W) 18:25:24 437.470
STRAND 1 23 Jan 18:18:37 18:19:40 11° 87° (E) 18:20:43 437.568
STARS 23 Jan 18:20:38 18:25:04 71° 103° (ESE) 18:29:28 437.465
XW-2C 23 Jan 18:24:11 18:27:04 20° 266° (W) 18:29:57 145.795 - 145.815
LilacSat-2 23 Jan 18:26:17 18:28:59 18° 267° (W) 18:31:41 437.200
XW-2A 23 Jan 18:26:38 18:29:08 19° 68° (ENE) 18:31:39 145.665 - 145.685
CUTE 1.7 + AOD 2 23 Jan 18:30:12 18:34:26 68° 259° (WSW) 18:38:42 437.475
Oscar 11 23 Jan 18:30:53 18:33:07 14° 62° (ENE) 18:35:21 .
nSIGHT-1 23 Jan 18:37:53 18:39:35 14° 133° (SE) 18:41:18 .
KAITUO 1B 23 Jan 18:51:00 18:53:02 14° 269° (W) 18:55:06 145.475/437.950
BEESAT 3 23 Jan 18:51:42 18:54:17 17° 248° (WSW) 18:56:50 437.485
NO-84 23 Jan 18:53:12 18:54:20 12° 348° (NNW) 18:55:27 435.350 FM
NUDT-PHONESAT 23 Jan 18:56:21 18:58:08 13° 269° (W) 18:59:55 437.300
RS-15 23 Jan 19:00:27 19:09:05 26° 259° (W) 19:17:28 29.354- 29.394
ISS 23 Jan 19:03:31 19:05:43 17° 134° (SE) 19:07:55 437.550
UWE-3 23 Jan 19:13:23 19:17:50 68° 259° (W) 19:22:26 435.000/436.395/437.385
CUBEBUG 2 23 Jan 19:15:16 19:19:21 37° 264° (W) 19:23:36 437.445
AAUSAT CUBESAT 2 23 Jan 19:18:43 19:22:51 78° 258° (WSW) 19:26:59 437.432
